Home   Weather   Mettlach   Past weeks
Flag for Germany

Past Weather in Mettlach, Saarland, Germany — Yesterday and Last 2 Weeks

Now
34 °F

Passing clouds.


Feels Like: 22 °F
Forecast: 45 / 28 °F
Wind: 22 mph from Northeast

Location: Luxembourg Airport

Current Time: Mar 30, 2020 at 12:21:02 am

Latest Report: Mar 29, 2020 at 11:50 pm


Visibility: N/A

Pressure: 30.36 "Hg

Humidity: 75%

Dew Point: 27 °F

Location of MettlachLocation

Past Weather in Mettlach — Graph

°F

Mettlach Temperature Yesterday

Maximum temperature yesterday: 43 °F (at 12:20 pm)
Minimum temperature yesterday: 34 °F (at 7:50 am)
Average temperature yesterday: 38 °F

High & Low Weather Summary for the Past Weeks

 TemperatureHumidityPressure
High63 °F (Mar 20, 1:50 pm)100% (Mar 18, 6:20 am)30.45 "Hg (Mar 18, 6:20 am)
Low28 °F (Mar 23, 5:50 am)18% (Mar 25, 5:20 pm)29.92 "Hg (Mar 15, 4:20 pm)
Average45 °F58%30.20 "Hg
* Reported Mar 14 10:20 pm — Mar 29 11:20 pm, Mettlach. Weather by CustomWeather, © 2020

Note: Actual official high and low records may vary slightly from our data, if they occured in-between our weather recording intervals... More about our weather records

Mettlach Weather History for the Previous 24 Hours

Scroll right to see more
 ConditionsComfort  
Time TempWeatherWind HumidityBarometerVisibility
11:20 pm
Sun, Mar 29
36 °FPartly cloudy.22 mph70%30.33 "HgN/A
10:50 pm36 °FPartly cloudy.21 mph70%30.33 "HgN/A
10:20 pm36 °FPassing clouds.21 mph75%30.33 "HgN/A
9:50 pm36 °FPassing clouds.20 mph75%30.33 "HgN/A
9:20 pm36 °FSnow flurries. Partly cloudy.21 mph75%30.33 "Hg3 mi
8:50 pm36 °FSnow flurries. Passing clouds.18 mph70%30.30 "HgN/A
8:20 pm36 °FPassing clouds.18 mph75%30.30 "HgN/A
7:50 pm36 °FPartly sunny.20 mph70%30.27 "HgN/A
7:20 pm36 °FBroken clouds.22 mph70%30.27 "HgN/A
6:50 pm36 °FScattered clouds.23 mph70%30.24 "HgN/A
6:20 pm37 °FScattered clouds.21 mph65%30.24 "HgN/A
5:50 pm37 °FLight snow. Partly sunny.21 mph65%30.24 "HgN/A
5:20 pm37 °FPartly sunny.17 mph60%30.24 "HgN/A
4:50 pm41 °FBroken clouds.20 mph57%30.21 "HgN/A
4:20 pm41 °FPartly sunny.20 mph53%30.21 "HgN/A
3:50 pm39 °FLight snow. Partly sunny.24 mph61%30.21 "HgN/A
3:20 pm39 °FPartly sunny.20 mph56%30.21 "HgN/A
2:50 pm41 °FBroken clouds.17 mph49%30.21 "HgN/A
2:20 pm41 °FPartly sunny.17 mph49%30.21 "HgN/A
1:50 pm41 °FScattered clouds.20 mph42%30.21 "HgN/A
1:20 pm39 °FPassing clouds.18 mph56%30.21 "HgN/A
12:50 pm39 °FBroken clouds.20 mph61%30.21 "HgN/A
12:20 pm43 °FBroken clouds.23 mph49%30.21 "HgN/A
11:50 am39 °FPassing clouds.22 mph52%30.21 "HgN/A
11:20 am39 °FPassing clouds.20 mph52%30.18 "HgN/A
10:50 am39 °FPassing clouds.17 mph56%30.18 "HgN/A
10:20 am37 °FPartly sunny.17 mph56%30.21 "HgN/A
9:50 am37 °FPartly sunny.16 mph65%30.21 "HgN/A
9:20 am36 °FPartly sunny.14 mph70%30.18 "HgN/A
8:50 am36 °FPartly sunny.10 mph70%30.18 "HgN/A
8:20 am34 °FScattered clouds.10 mph70%30.18 "HgN/A
7:50 am34 °FScattered clouds.14 mph70%30.18 "HgN/A
7:20 am36 °FBroken clouds.16 mph65%30.18 "HgN/A
6:50 am37 °FPassing clouds.14 mph65%30.18 "HgN/A
6:20 am37 °FPassing clouds.17 mph70%30.18 "HgN/A
5:50 am37 °FPassing clouds.15 mph65%30.18 "HgN/A
5:20 am37 °FPassing clouds.20 mph60%30.15 "HgN/A
4:50 am37 °FPassing clouds.15 mph65%30.18 "HgN/A
4:20 am37 °FOvercast.17 mph65%30.18 "HgN/A
3:50 am37 °FOvercast.16 mph70%30.18 "HgN/A
3:20 am39 °FOvercast.16 mph70%30.18 "HgN/A
1:50 am39 °FMostly cloudy.17 mph75%30.18 "HgN/A
1:20 am41 °FPassing clouds.21 mph70%30.18 "HgN/A
12:50 am41 °FQuite cool.16 mph70%30.15 "HgN/A
12:20 am41 °FQuite cool.18 mph70%30.15 "HgN/A
Weather by CustomWeather, © 2020

See weather overview

Advertising